| time (UTC) | temp F | wind direction | speed MPH | gust MPH | rain 1hr in | rain 24hr in | rain mn in | humidity % | barometer mb |
| 20260508154546 | 72 | 13 | 12.0 | 20.0 | 0.00 | 0.00 | 0.00 | 42 | 1010.8 |
| 20260508153049 | 70 | 9 | 12.0 | 19.0 | 0.00 | 0.00 | 0.00 | 44 | 1010.8 |
| 20260508151539 | 69 | 11 | 9.0 | 16.0 | 0.00 | 0.00 | 0.00 | 44 | 1010.9 |
| 20260508150035 | 67 | 11 | 10.0 | 17.0 | 0.00 | 0.00 | 0.00 | 47 | 1011.0 |
| 20260508144533 | 65 | 13 | 9.0 | 15.0 | 0.00 | 0.00 | 0.00 | 49 | 1011.0 |
| 20260508143027 | 62 | 360 | 6.0 | 11.0 | 0.00 | 0.00 | 0.00 | 54 | 1011.1 |
| 20260508141525 | 59 | 360 | 7.0 | 10.0 | 0.00 | 0.00 | 0.00 | 59 | 1011.1 |
| 20260508140023 | 55 | 360 | 5.0 | 9.0 | 0.00 | 0.00 | 0.00 | 69 | 1011.3 |
| 20260508134513 | 53 | 360 | 6.0 | 10.0 | 0.00 | 0.00 | 0.00 | 75 | 1011.2 |
| 20260508133010 | 51 | 360 | 3.0 | 9.0 | 0.00 | 0.00 | 0.00 | 79 | 1010.8 |
| 20260508131510 | 48 | 360 | 2.0 | 4.0 | 0.00 | 0.00 | 0.00 | 84 | 1010.8 |
| 20260508130019 | 46 | 257 | 2.0 | 3.0 | 0.00 | 0.00 | 0.00 | 83 | 1011.1 |
| 20260508124507 | 46 | 258 | 2.0 | 4.0 | 0.00 | 0.00 | 0.00 | 83 | 1010.8 |
| 20260508123012 | 46 | 254 | 2.0 | 3.0 | 0.00 | 0.00 | 0.00 | 82 | 1010.7 |
| 20260508121506 | 46 | 274 | 3.0 | 6.0 | 0.00 | 0.00 | 0.00 | 80 | 1010.6 |
| 20260508120005 | 47 | 279 | 3.0 | 7.0 | 0.00 | 0.00 | 0.00 | 79 | 1010.5 |
| 20260508114505 | 47 | 281 | 3.0 | 7.0 | 0.00 | 0.01 | 0.00 | 78 | 1010.5 |
| 20260508113004 | 47 | 216 | 6.0 | 7.0 | 0.00 | 0.01 | 0.00 | 78 | 1010.3 |
| 20260508111505 | 47 | 207 | 5.0 | 7.0 | 0.00 | 0.01 | 0.00 | 76 | 1010.4 |
| 20260508110110 | 48 | 217 | 7.0 | 10.0 | 0.00 | 0.01 | 0.00 | 75 | 1010.4 |
| 20260508104600 | 48 | 232 | 5.0 | 8.0 | 0.00 | 0.01 | 0.00 | 75 | 1010.3 |
| 20260508103108 | 48 | 221 | 6.0 | 10.0 | 0.00 | 0.01 | 0.00 | 74 | 1010.7 |
| 20260508101558 | 48 | 234 | 7.0 | 10.0 | 0.00 | 0.01 | 0.00 | 73 | 1010.6 |
| 20260508100056 | 49 | 223 | 7.0 | 9.0 | 0.00 | 0.01 | 0.00 | 72 | 1010.7 |
| 20260508094555 | 48 | 224 | 8.0 | 11.0 | 0.00 | 0.01 | 0.00 | 73 | 1010.7 |
| 20260508093104 | 48 | 210 | 8.0 | 10.0 | 0.00 | 0.01 | 0.00 | 73 | 1010.9 |
| 20260508091555 | 49 | 229 | 7.0 | 10.0 | 0.00 | 0.01 | 0.00 | 71 | 1010.9 |
| 20260508090100 | 50 | 234 | 8.0 | 12.0 | 0.00 | 0.01 | 0.00 | 68 | 1010.8 |
| 20260508084551 | 51 | 232 | 10.0 | 12.0 | 0.00 | 0.01 | 0.00 | 68 | 1010.8 |
| 20260508083051 | 51 | 227 | 7.0 | 10.0 | 0.00 | 0.01 | 0.00 | 69 | 1010.9 |
| 20260508081548 | 49 | 223 | 7.0 | 9.0 | 0.00 | 0.01 | 0.00 | 71 | 1011.1 |
| 20260508080047 | 49 | 215 | 7.0 | 10.0 | 0.00 | 0.01 | 0.00 | 70 | 1011.1 |
| 20260508074547 | 48 | 215 | 7.0 | 9.0 | 0.00 | 0.01 | 0.00 | 71 | 1011.4 |
| 20260508073045 | 46 | 213 | 5.0 | 6.0 | 0.00 | 0.01 | 0.00 | 72 | 1011.6 |
| 20260508071539 | 47 | 211 | 4.0 | 5.0 | 0.00 | 0.01 | 0.00 | 69 | 1011.5 |
| 20260508070036 | 49 | 207 | 4.0 | 5.0 | 0.00 | 0.01 | 0.00 | 66 | 1011.8 |
| 20260508064538 | 49 | 194 | 3.0 | 5.0 | 0.00 | 0.01 | 0.00 | 65 | 1012.2 |
| 20260508063044 | 48 | 186 | 2.0 | 3.0 | 0.00 | 0.01 | 0.00 | 66 | 1012.2 |
| 20260508061531 | 48 | 186 | 2.0 | 3.0 | 0.00 | 0.01 | 0.00 | 67 | 1012.4 |
| 20260508060028 | 48 | 15 | 2.0 | 5.0 | 0.00 | 0.01 | 0.00 | 66 | 1012.5 |
| 20260508054525 | 50 | 17 | 2.0 | 4.0 | 0.00 | 0.01 | 0.00 | 63 | 1012.6 |
| 20260508053024 | 50 | 19 | 2.0 | 4.0 | 0.00 | 0.01 | 0.00 | 64 | 1012.6 |
| 20260508051521 | 49 | 18 | 2.0 | 4.0 | 0.00 | 0.01 | 0.00 | 66 | 1012.7 |
| 20260508050025 | 50 | 14 | 3.0 | 5.0 | 0.00 | 0.01 | 0.00 | 64 | 1013.0 |
| 20260508044516 | 50 | 17 | 5.0 | 7.0 | 0.00 | 0.02 | 0.01 | 63 | 1013.1 |
| 20260508043016 | 50 | 15 | 2.0 | 3.0 | 0.00 | 0.02 | 0.01 | 62 | 1013.3 |
| 20260508041515 | 52 | 14 | 3.0 | 4.0 | 0.00 | 0.02 | 0.01 | 60 | 1013.5 |
| 20260508040015 | 52 | 18 | 2.0 | 4.0 | 0.00 | 0.02 | 0.01 | 60 | 1013.6 |
| 20260508034514 | 53 | 13 | 3.0 | 6.0 | 0.00 | 0.18 | 0.01 | 58 | 1013.7 |
| 20260508033013 | 54 | 13 | 5.0 | 7.0 | 0.00 | 0.18 | 0.01 | 55 | 1013.7 |
| 20260508031512 | 55 | 15 | 3.0 | 4.0 | 0.00 | 0.18 | 0.01 | 54 | 1013.6 |
| 20260508030012 | 58 | 19 | 4.0 | 6.0 | 0.00 | 0.18 | 0.01 | 50 | 1013.5 |
| 20260508024511 | 58 | 360 | 2.0 | 5.0 | 0.00 | 0.30 | 0.01 | 50 | 1013.4 |
| 20260508023011 | 60 | 360 | 3.0 | 6.0 | 0.00 | 0.30 | 0.01 | 45 | 1013.3 |
| 20260508021511 | 62 | 15 | 4.0 | 6.0 | 0.00 | 0.30 | 0.01 | 40 | 1013.3 |
| 20260508020012 | 61 | 360 | 3.0 | 4.0 | 0.00 | 0.30 | 0.01 | 46 | 1013.3 |
| 20260508014511 | 62 | 18 | 3.0 | 5.0 | 0.00 | 0.33 | 0.01 | 44 | 1013.2 |
| 20260508013009 | 67 | 13 | 2.0 | 4.0 | 0.00 | 0.33 | 0.01 | 37 | 1013.2 |
| 20260508011510 | 69 | 15 | 1.0 | 4.0 | 0.00 | 0.33 | 0.01 | 32 | 1013.2 |
| 20260508010009 | 70 | 19 | 6.0 | 9.0 | 0.00 | 0.33 | 0.01 | 28 | 1013.3 |
| 20260508004512 | 71 | 19 | 5.0 | 12.0 | 0.00 | 0.33 | 0.01 | 25 | 1013.3 |
| 20260508003006 | 72 | 22 | 5.0 | 13.0 | 0.00 | 0.33 | 0.01 | 26 | 1013.2 |
| 20260508001512 | 72 | 27 | 9.0 | 15.0 | 0.00 | 0.33 | 0.01 | 26 | 1013.4 |
| 20260508000004 | 72 | 23 | 11.0 | 17.0 | 0.00 | 0.33 | 0.01 | 27 | 1013.3 |
| 20260507233003 | 72 | 24 | 10.0 | 15.0 | 0.00 | 0.33 | 0.01 | 28 | 1013.4 |
| 20260507231600 | 72 | 24 | 7.0 | 18.0 | 0.00 | 0.33 | 0.01 | 27 | 1013.5 |
| 20260507230059 | 72 | 30 | 12.0 | 18.0 | 0.00 | 0.33 | 0.01 | 28 | 1013.6 |
| 20260507224601 | 72 | 27 | 9.0 | 18.0 | 0.00 | 0.33 | 0.01 | 28 | 1013.9 |
| 20260507223055 | 72 | 25 | 14.0 | 18.0 | 0.00 | 0.33 | 0.01 | 27 | 1014.0 |
| 20260507221553 | 71 | 22 | 11.0 | 16.0 | 0.00 | 0.33 | 0.01 | 30 | 1014.2 |
| 20260507220050 | 71 | 19 | 11.0 | 17.0 | 0.00 | 0.33 | 0.01 | 30 | 1014.3 |
| 20260507214552 | 70 | 21 | 14.0 | 22.0 | 0.00 | 0.33 | 0.01 | 31 | 1014.5 |
| 20260507213046 | 70 | 222 | 8.0 | 21.0 | 0.00 | 0.33 | 0.01 | 32 | 1015.0 |
| 20260507211544 | 71 | 285 | 10.0 | 20.0 | 0.00 | 0.33 | 0.01 | 30 | 1015.5 |
| 20260507210042 | 69 | 223 | 11.0 | 22.0 | 0.00 | 0.33 | 0.01 | 34 | 1015.8 |
| 20260507204544 | 69 | 194 | 9.0 | 21.0 | 0.00 | 0.33 | 0.01 | 35 | 1015.7 |
| 20260507203036 | 68 | 225 | 14.0 | 20.0 | 0.00 | 0.33 | 0.01 | 36 | 1016.3 |
| 20260507201536 | 68 | 360 | 13.0 | 18.0 | 0.00 | 0.33 | 0.01 | 38 | 1016.6 |
| 20260507200033 | 67 | 360 | 13.0 | 20.0 | 0.00 | 0.33 | 0.01 | 36 | 1017.0 |
| 20260507194530 | 67 | 245 | 10.0 | 22.0 | 0.00 | 0.33 | 0.01 | 37 | 1017.2 |
| 20260507193031 | 66 | 219 | 12.0 | 24.0 | 0.00 | 0.33 | 0.01 | 40 | 1017.5 |
| 20260507191525 | 66 | 259 | 13.0 | 24.0 | 0.00 | 0.33 | 0.01 | 43 | 1017.9 |
| 20260507190022 | 65 | 360 | 16.0 | 24.0 | 0.00 | 0.33 | 0.01 | 48 | 1018.1 |
| 20260507184518 | 64 | 254 | 17.0 | 26.0 | 0.00 | 0.33 | 0.01 | 48 | 1018.4 |
| 20260507183015 | 63 | 237 | 20.0 | 25.0 | 0.00 | 0.33 | 0.01 | 52 | 1018.8 |
| 20260507181512 | 62 | 360 | 18.0 | 26.0 | 0.00 | 0.33 | 0.01 | 54 | 1019.2 |
| 20260507180012 | 62 | 252 | 15.0 | 26.0 | 0.00 | 0.33 | 0.01 | 58 | 1019.6 |
| 20260507174509 | 61 | 254 | 16.0 | 26.0 | 0.00 | 0.33 | 0.01 | 61 | 1019.8 |
| 20260507173004 | 60 | 233 | 19.0 | 27.0 | 0.00 | 0.33 | 0.01 | 63 | 1020.3 |
| 20260507171605 | 59 | 360 | 19.0 | 29.0 | 0.00 | 0.33 | 0.01 | 66 | 1020.6 |
| 20260507170057 | 58 | 360 | 19.0 | 30.0 | 0.00 | 0.33 | 0.01 | 68 | 1020.8 |
| 20260507164552 | 57 | 360 | 19.0 | 27.0 | 0.00 | 0.33 | 0.01 | 70 | 1021.0 |
| 20260507163048 | 56 | 238 | 23.0 | 28.0 | 0.00 | 0.33 | 0.01 | 71 | 1021.0 |
| 20260507161546 | 55 | 237 | 23.0 | 28.0 | 0.00 | 0.33 | 0.01 | 75 | 1021.3 |
| 20260507160044 | 55 | 250 | 18.0 | 30.0 | 0.00 | 0.33 | 0.01 | 77 | 1021.3 |